DW8199 Weather Reports


Display with metric or nautical units.
time (UTC)temp
F
wind
direction
speed
MPH
gust
MPH
rain 1hr
in
rain 24hr
in
rain mn
in
humidity
%
barometer
mb
20260831215016 81 72 0.0 1.0 0.00 0.00 0.00 80 1018.3
20260831214016 81 76 0.0 1.0 0.00 0.00 0.00 80 1018.0
20260831213016 81 0.0 2.0 0.00 0.00 0.00 80 1017.8
20260831212036 81 90 1.0 2.0 0.00 0.00 0.00 80 1017.6
20260831211016 81 96 1.0 1.0 0.00 0.00 0.00 78 1017.9
20260831210016 83 0.0 0.0 0.00 0.00 0.00 76 1018.2
20260831205016 85 0.0 0.0 0.00 0.00 0.00 75 1018.2
20260831204036 87 0.0 0.0 0.00 0.00 0.00 70 1018.4
20260831203036 89 277 1.0 4.0 0.00 0.00 0.00 61 1018.5
20260831202016 88 208 1.0 2.0 0.00 0.00 0.00 64 1018.6
20260831201015 88 294 2.0 4.0 0.00 0.00 0.00 61 1018.6
20260831200015 88 273 1.0 4.0 0.00 0.00 0.00 63 1018.6
20260831195016 88 314 1.0 3.0 0.00 0.00 0.00 67 1018.7
20260831194016 88 271 0.0 3.0 0.00 0.00 0.00 66 1019.0
20260831193016 87 212 1.0 4.0 0.00 0.00 0.00 65 1019.1
20260831192015 87 236 1.0 6.0 0.00 0.00 0.00 64 1019.3
20260831191036 88 290 1.0 3.0 0.00 0.00 0.00 62 1019.3
20260831190015 89 267 1.0 7.0 0.00 0.00 0.00 62 1019.4
20260831185015 89 285 1.0 7.0 0.00 0.00 0.00 62 1019.4
20260831184015 89 272 1.0 5.0 0.00 0.00 0.00 63 1019.5
20260831183016 89 233 2.0 7.0 0.00 0.00 0.00 60 1019.6
20260831182015 90 279 2.0 6.0 0.00 0.00 0.00 61 1019.7
20260831181036 89 244 3.0 8.0 0.00 0.00 0.00 61 1019.8
20260831180016 88 279 2.0 7.0 0.00 0.00 0.00 63 1019.7
20260831175015 87 257 1.0 4.0 0.00 0.00 0.00 62 1019.7
20260831174015 87 255 0.0 4.0 0.00 0.00 0.00 64 1019.8
20260831173035 88 256 1.0 5.0 0.00 0.00 0.00 64 1020.0
20260831172016 88 247 1.0 4.0 0.00 0.00 0.00 65 1020.1
20260831171036 88 255 2.0 5.0 0.00 0.00 0.00 63 1020.1
20260831170015 88 272 2.0 6.0 0.00 0.00 0.00 63 1020.1
20260831165015 87 249 1.0 4.0 0.00 0.00 0.00 69 1020.1
20260831164015 86 201 1.0 5.0 0.00 0.00 0.00 70 1020.0
20260831163015 86 253 0.0 3.0 0.00 0.00 0.00 70 1020.2
20260831162015 85 238 1.0 4.0 0.00 0.00 0.00 72 1020.2
20260831161015 83 171 0.0 4.0 0.00 0.00 0.00 75 1020.2
20260831160015 81 225 1.0 4.0 0.00 0.00 0.00 78 1020.2
20260831155016 79 224 0.0 3.0 0.00 0.00 0.00 83 1020.2
20260831154015 77 0.0 0.0 0.00 0.00 0.00 85 1020.3
20260831152516 75 244 0.0 1.0 0.00 0.00 0.00 90 1020.3
20260831151517 75 117 0.0 1.0 0.00 0.00 0.00 89 1020.4
20260831150516 75 0.0 1.0 0.00 0.00 0.00 90 1020.4
20260831145516 74 117 0.0 1.0 0.00 0.00 0.00 90 1020.3
20260831144517 74 0.0 0.0 0.00 0.00 0.00 90 1020.2
20260831143516 74 0.0 0.0 0.00 0.00 0.00 89 1020.2
20260831142536 74 117 0.0 1.0 0.00 0.00 0.00 89 1020.1
20260831141516 74 127 0.0 1.0 0.00 0.00 0.00 90 1020.0
20260831140537 74 210 0.0 1.0 0.00 0.00 0.00 90 1020.0
20260831135516 73 274 0.0 1.0 0.00 0.00 0.00 90 1019.9
20260831134516 73 113 0.0 1.0 0.00 0.00 0.00 90 1019.9
20260831133536 74 127 0.0 1.0 0.00 0.00 0.00 91 1020.1
20260831132516 73 293 0.0 1.0 0.00 0.00 0.00 91 1020.2
20260831131516 73 346 0.0 1.0 0.00 0.00 0.00 92 1020.0
20260831130516 72 0.0 0.0 0.00 0.00 0.00 92 1019.8
20260831125516 71 0.0 0.0 0.00 0.00 0.00 92 1019.9
20260831124536 71 0.0 0.0 0.00 0.00 0.00 92 1020.0
20260831123536 70 0.0 0.0 0.00 0.00 0.00 92 1020.0
20260831122517 70 0.0 0.0 0.00 0.00 0.00 92 1020.1
20260831121516 70 0.0 0.0 0.00 0.00 0.00 92 1020.1
20260831120516 69 0.0 0.0 0.00 0.00 0.00 92 1020.0
20260831115516 69 0.0 0.0 0.00 0.00 0.00 92 1020.0
20260831114516 69 0.0 0.0 0.00 0.00 0.00 92 1019.8
20260831113516 69 0.0 0.0 0.00 0.00 0.00 92 1019.7
20260831112536 69 0.0 0.0 0.00 0.00 0.00 92 1019.6
20260831111516 69 0.0 0.0 0.00 0.00 0.00 92 1019.5
20260831110516 69 0.0 0.0 0.00 0.00 0.00 92 1019.6
20260831105516 69 0.0 0.0 0.00 0.00 0.00 92 1019.5
20260831104516 69 0.0 0.0 0.00 0.00 0.00 92 1019.5
20260831103516 69 0.0 0.0 0.00 0.00 0.00 92 1019.4
20260831102516 69 0.0 0.0 0.00 0.00 0.00 92 1019.3
20260831101516 69 0.0 0.0 0.00 0.00 0.00 92 1019.2
20260831100516 69 0.0 0.0 0.00 0.00 0.00 92 1019.3
20260831095536 69 0.0 0.0 0.00 0.00 0.00 92 1019.2
20260831094516 69 0.0 0.0 0.00 0.00 0.00 92 1019.4
20260831093516 69 0.0 0.0 0.00 0.00 0.00 92 1019.3
20260831092516 69 0.0 0.0 0.00 0.00 0.00 92 1019.2
20260831091516 69 0.0 0.0 0.00 0.00 0.00 91 1019.2
20260831090516 69 0.0 0.0 0.00 0.00 0.00 91 1019.3
20260831085516 69 0.0 0.0 0.00 0.00 0.00 91 1019.4
20260831084516 69 0.0 0.0 0.00 0.00 0.00 91 1019.5
20260831083517 69 0.0 0.0 0.00 0.00 0.00 91 1019.6
20260831082517 69 0.0 0.0 0.00 0.00 0.00 91 1019.5
20260831081517 69 0.0 0.0 0.00 0.00 0.00 91 1019.7
20260831080516 69 0.0 0.0 0.00 0.00 0.00 91 1019.6
20260831075556 69 0.0 0.0 0.00 0.00 0.00 91 1019.5
20260831074536 69 0.0 0.0 0.00 0.00 0.00 91 1019.3
20260831073516 69 0.0 0.0 0.00 0.00 0.00 91 1019.4
20260831072536 69 0.0 0.0 0.00 0.00 0.00 91 1019.5
20260831071516 69 0.0 0.0 0.00 0.00 0.00 91 1019.6
20260831070556 69 0.0 0.0 0.00 0.00 0.00 91 1019.7
20260831065516 69 0.0 0.0 0.00 0.00 0.00 91 1019.7
20260831064516 69 0.0 0.0 0.00 0.00 0.00 91 1019.7
20260831063516 69 0.0 0.0 0.00 0.00 0.00 91 1019.9
20260831062516 69 0.0 0.0 0.00 0.00 0.00 91 1019.9
20260831061516 69 0.0 0.0 0.00 0.00 0.00 91 1020.1
20260831060516 69 0.0 0.0 0.00 0.00 0.00 91 1020.1
20260831055516 69 0.0 0.0 0.00 0.00 0.00 91 1020.2
20260831054516 69 0.0 0.0 0.00 0.00 0.00 91 1020.2
20260831053516 70 0.0 0.0 0.00 0.00 0.00 91 1020.3
20260831052516 70 0.0 0.0 0.00 0.00 0.00 91 1020.4
20260831051536 70 0.0 0.0 0.00 0.00 0.00 90 1020.4
20260831050516 70 0.0 0.0 0.00 0.00 0.00 90 1020.3
20260831045516 71 0.0 0.0 0.00 0.00 0.00 90 1020.4
20260831044536 71 0.0 0.0 0.00 0.00 0.00 90 1020.4
20260831043516 71 0.0 0.0 0.00 0.00 0.00 90 1020.6
20260831042516 71 0.0 0.0 0.00 0.00 0.00 90 1020.5
20260831041556 71 0.0 0.0 0.00 0.00 0.00 90 1020.5
20260831040516 71 0.0 0.0 0.00 0.00 0.00 90 1020.5
20260831035515 71 0.0 0.0 0.00 0.00 0.00 89 1020.5
20260831034515 71 0.0 0.0 0.00 0.00 0.00 89 1020.5
20260831033535 71 0.0 0.0 0.00 0.00 0.00 89 1020.6
20260831032515 71 0.0 0.0 0.00 0.00 0.00 89 1020.5
20260831031515 71 0.0 0.0 0.00 0.00 0.00 89 1020.7
20260831030535 71 0.0 0.0 0.00 0.00 0.00 88 1020.7
20260831025535 72 0.0 0.0 0.00 0.00 0.00 88 1020.9
20260831024515 72 0.0 0.0 0.00 0.00 0.00 88 1020.9
20260831023515 72 0.0 0.0 0.00 0.00 0.00 88 1020.9
20260831022535 72 0.0 0.0 0.00 0.00 0.00 88 1020.9
20260831021515 72 0.0 0.0 0.00 0.00 0.00 88 1020.9
20260831020515 72 0.0 0.0 0.00 0.00 0.00 88 1020.8
20260831015515 72 0.0 0.0 0.00 0.00 0.00 88 1020.9
20260831014515 72 0.0 0.0 0.00 0.00 0.00 88 1020.8
20260831013515 72 0.0 0.0 0.00 0.00 0.00 88 1020.6
20260831012515 73 0.0 0.0 0.00 0.00 0.00 88 1020.7
20260831011515 73 0.0 0.0 0.00 0.00 0.00 87 1020.7
20260831010515 73 0.0 0.0 0.00 0.00 0.00 87 1020.6
20260831005516 73 0.0 0.0 0.00 0.00 0.00 87 1020.4
20260831004515 73 0.0 0.0 0.00 0.00 0.00 86 1020.1
20260831003515 73 0.0 0.0 0.00 0.00 0.00 85 1019.7
20260831002636 73 0.0 0.0 0.00 0.00 0.00 85 1019.5
20260831001515 73 0.0 0.0 0.00 0.00 0.00 85 1019.3
20260831000515 73 0.0 0.0 0.00 0.00 0.00 85 1019.2
20260830235515 73 0.0 0.0 0.00 0.00 0.00 84 1019.3
20260830234515 74 0.0 0.0 0.00 0.00 0.00 83 1019.2
20260830233515 74 0.0 0.0 0.00 0.00 0.00 83 1019.0
20260830232515 74 0.0 0.0 0.00 0.00 0.00 83 1019.0
20260830231515 74 0.0 0.0 0.00 0.00 0.00 83 1018.7
20260830230016 75 94 0.0 1.0 0.00 0.00 0.00 82 1018.9
20260830225036 75 93 0.0 1.0 0.00 0.00 0.00 82 1018.7
20260830224017 75 94 0.0 2.0 0.00 0.00 0.00 80 1018.7
20260830223016 75 293 1.0 2.0 0.00 0.00 0.00 79 1018.4
20260830222036 75 86 1.0 2.0 0.00 0.00 0.00 81 1018.3
20260830221016 75 97 0.0 1.0 0.00 0.00 0.00 81 1018.6
20260830220016 76 98 1.0 1.0 0.00 0.00 0.00 81 1018.8